Change the Weather History Date:

Thursday, March 1, 2012

  Actual Average Record
Temperature  
Mean Temperature 30 °F 34 °F  
Max Temperature 35 °F 44 °F 61 °F (1994)
Min Temperature 24 °F 24 °F -3 °F (1960)
Degree Days  
Heating Degree Days 35 31  
Month to date heating degree days 35 31  
Since 1 July heating degree days 5159 5400  
Cooling Degree Days 0 0  
Month to date cooling degree days 0 0  
Year to date cooling degree days 0 0  
Moisture  
Dew Point 21 °F    
Average Humidity 75    
Maximum Humidity 92    
Minimum Humidity 58    
Precipitation  
Precipitation 0.05 in 0.03 in 0.40 in (1904)
Month to date precipitation 0.05 0.03  
Year to date precipitation 2.50 1.58  
Snow  
Snow 1.00 in - - ()
Month to date snowfall 1.0  
Year to date snowfall 27.7  
Since 1 July snowfall 38.6  
Snow Depth T in    
Sea Level Pressure  
Sea Level Pressure 29.85 in    
Wind  
Wind Speed 5 mph (NNW)    
Max Wind Speed 21 mph    
Max Gust Speed 28 mph    
Visibility 6 miles    
Events Fog , Snow    
T = Trace of Precipitation, MM = Missing Value Source: NWS Daily Summary

Daily Weather History Graph

Daily Weather History Graph

Search for Another Location

Airport or City:

Trip Planner

Search our weather history database for the weather conditions in past years. The results will help you decide how hot, cold, wet, or windy it might be!

Date:

Astronomy

Mar. 01, 2012 Rise Set
Actual Time 7:15 AM MST 6:22 PM MST
Civil Twilight 6:44 AM MST 6:53 PM MST
Nautical Twilight 6:09 AM MST 7:28 PM MST
Astronomical Twilight 5:34 AM MST 8:03 PM MST
Moon 11:28 AM MST 2:35 AM MST
Length of Visible Light 12h 08m
Length of Day
11h 07m
First Quarter, 57% of the Moon is Illuminated
Mar 1
First Quarter
Mar 8
Full
Mar 14
Last Quarter
Mar 22
New
Mar 30
First Quarter

Hourly Weather History & Observations

Time (MST) Temp. Windchill Dew Point Humidity Pressure Visibility Wind Dir Wind Speed Gust Speed Precip Events Conditions
12:53 AM 28.0 °F 20.0 °F 18.0 °F 66% 29.82 in 10.0 mi SSE 8.1 mph - N/A   Overcast
1:53 AM 28.0 °F 21.7 °F 16.0 °F 61% 29.81 in 10.0 mi SSW 5.8 mph - N/A   Partly Cloudy
2:53 AM 30.0 °F 25.2 °F 19.0 °F 64% 29.80 in 10.0 mi SW 4.6 mph - N/A   Overcast
3:53 AM 27.0 °F - 18.0 °F 69% 29.78 in 10.0 mi Calm Calm - N/A   Partly Cloudy
4:53 AM 28.0 °F 22.8 °F 18.0 °F 66% 29.79 in 10.0 mi SE 4.6 mph - N/A   Overcast
5:10 AM 26.6 °F 20.0 °F 17.6 °F 69% 29.72 in 8.0 mi SSE 5.8 mph - 0.00 in Snow Light Snow
5:53 AM 27.0 °F 18.0 °F 19.9 °F 75% 29.80 in 10.0 mi East 9.2 mph - 0.00 in   Scattered Clouds
6:53 AM 24.1 °F 17.0 °F 19.0 °F 81% 29.81 in 10.0 mi SSW 5.8 mph - N/A   Mostly Cloudy
7:53 AM 26.1 °F 20.5 °F 19.0 °F 75% 29.82 in 10.0 mi East 4.6 mph - N/A   Overcast
8:28 AM 26.6 °F 22.6 °F 21.2 °F 80% 29.74 in 3.0 mi North 3.5 mph - 0.00 in Snow Light Snow
8:30 AM 26.6 °F 22.6 °F 21.2 °F 80% 29.74 in 2.0 mi NNW 3.5 mph - 0.00 in Snow Light Snow
8:34 AM 26.6 °F 22.6 °F 21.2 °F 80% 29.74 in 1.2 mi NW 3.5 mph - 0.00 in Snow Light Snow
8:53 AM 26.1 °F 20.5 °F 21.9 °F 84% 29.84 in 0.8 mi North 4.6 mph - 0.00 in Snow Light Snow
9:00 AM 26.6 °F 20.0 °F 21.2 °F 80% 29.75 in 0.2 mi NNE 5.8 mph - N/A Fog , Snow Snow
9:08 AM 26.6 °F 21.2 °F 23.0 °F 86% 29.75 in 0.2 mi NE 4.6 mph - 0.02 in Fog , Snow Snow
9:14 AM 26.6 °F 20.0 °F 23.0 °F 86% 29.75 in 0.5 mi ENE 5.8 mph - N/A Fog , Snow Snow
9:22 AM 26.6 °F 20.0 °F 23.0 °F 86% 29.75 in 1.0 mi East 5.8 mph - 0.03 in Snow Light Snow
9:26 AM 26.6 °F 20.0 °F 21.2 °F 80% 29.76 in 1.5 mi East 5.8 mph - 0.03 in Snow Light Snow
9:34 AM 26.6 °F 21.2 °F 21.2 °F 80% 29.76 in 2.0 mi East 4.6 mph - 0.03 in Snow Light Snow
9:42 AM 26.6 °F 22.6 °F 21.2 °F 80% 29.76 in 1.5 mi East 3.5 mph - 0.03 in Snow Light Snow
9:53 AM 27.0 °F - 21.9 °F 81% 29.86 in 2.5 mi Calm Calm - 0.03 in Snow Light Snow
10:00 AM 26.6 °F - 21.2 °F 80% 29.76 in 10.0 mi Calm Calm - N/A Snow Light Snow
10:23 AM 26.6 °F 21.2 °F 21.2 °F 80% 29.77 in 10.0 mi South 4.6 mph - 0.00 in   Scattered Clouds
10:53 AM 27.0 °F - 21.9 °F 81% 29.86 in 10.0 mi Calm Calm - 0.00 in   Mostly Cloudy
11:53 AM 28.9 °F 22.8 °F 21.0 °F 72% 29.87 in 10.0 mi SW 5.8 mph - N/A   Mostly Cloudy
12:06 PM 28.4 °F 23.3 °F 21.2 °F 74% 29.78 in 2.5 mi SSW 4.6 mph - 0.00 in Snow Light Snow
12:14 PM 28.4 °F 24.6 °F 21.2 °F 74% 29.78 in 3.0 mi South 3.5 mph - 0.01 in Snow Light Snow
12:41 PM 28.4 °F - 21.2 °F 74% 29.78 in 3.0 mi Calm Calm - 0.01 in   Haze
12:53 PM 28.9 °F - 21.9 °F 75% 29.87 in 10.0 mi Calm Calm - 0.01 in   Haze
1:28 PM 30.2 °F - 21.2 °F 69% 29.78 in 10.0 mi Calm Calm - N/A   Overcast
1:42 PM 30.2 °F - 21.2 °F 69% 29.79 in 4.0 mi Calm Calm - 0.00 in Snow Light Snow
1:53 PM 30.9 °F 27.5 °F 23.0 °F 72% 29.87 in 9.0 mi NNW 3.5 mph - 0.00 in   Mostly Cloudy
2:53 PM 32.0 °F 24.2 °F 23.0 °F 69% 29.88 in 10.0 mi North 9.2 mph - 0.00 in   Mostly Cloudy
3:53 PM 32.0 °F 21.6 °F 21.9 °F 66% 29.92 in 10.0 mi NNW 15.0 mph - 0.00 in   Mostly Cloudy
4:04 PM 30.2 °F 18.5 °F 23.0 °F 75% 29.84 in 1.2 mi NW 17.3 mph 27.6 mph 0.00 in Snow Light Snow
4:06 PM 28.4 °F 17.5 °F 24.8 °F 86% 29.85 in 0.8 mi NW 13.8 mph 27.6 mph 0.00 in Snow Light Snow
4:17 PM 28.4 °F 17.5 °F 24.8 °F 86% 29.86 in 0.2 mi NW 13.8 mph - 0.00 in Fog , Snow Snow
4:22 PM 28.4 °F 18.5 °F 24.8 °F 86% 29.86 in 0.5 mi WNW 11.5 mph - 0.01 in Fog , Snow Snow
4:25 PM 28.4 °F 18.5 °F 26.6 °F 93% 29.86 in 6.0 mi NW 11.5 mph - 0.01 in Snow Light Snow
4:43 PM 28.4 °F 22.2 °F 24.8 °F 86% 29.86 in 10.0 mi NNW 5.8 mph - 0.01 in   Mostly Cloudy
4:53 PM 28.9 °F 25.2 °F 25.0 °F 85% 29.96 in 10.0 mi North 3.5 mph - 0.01 in   Mostly Cloudy
5:53 PM 28.0 °F 20.8 °F 24.1 °F 85% 29.99 in 10.0 mi South 6.9 mph - N/A   Mostly Cloudy
6:53 PM 27.0 °F - 24.1 °F 89% 30.02 in 10.0 mi Calm Calm - N/A   Clear
7:53 PM 26.1 °F 21.9 °F 21.9 °F 84% 30.06 in 10.0 mi NE 3.5 mph - N/A   Mostly Cloudy
8:53 PM 27.0 °F 19.5 °F 19.9 °F 75% 30.07 in 10.0 mi NW 6.9 mph - N/A   Overcast
9:53 PM 27.0 °F 18.7 °F 18.0 °F 69% 30.11 in 10.0 mi West 8.1 mph - N/A   Mostly Cloudy
10:53 PM 26.1 °F 18.4 °F 18.0 °F 71% 30.13 in 10.0 mi West 6.9 mph - N/A   Mostly Cloudy
11:53 PM 27.0 °F - 18.0 °F 69% 30.15 in 10.0 mi Calm Calm - N/A   Overcast